www.pogodaiklimat.ru

Погода и климат >> Архив погоды >> Россия >> Якутия >> Екюччю


ПОГОДА в Екюччю

  • Прогноз погоды в Екюччю
  • Монитор погоды в Екюччю

АРХИВ ПОГОДЫ в Екюччю

Время (UTC), дата Ветер
(напр.,м/с)
 
Видим.   Явления Облачность Т
(С)
Тd
(С)
f
(%)
Тe
(С)
Тes
(С)
Комфортность P
(гПа)
Po
(гПа)
Тmin
(С)
Tmax
(С)
R
(мм)
R24
(мм)
S
(см)
06 17.02 З 2 20 км слаб. снег 10/0
[Cs]
-31.4 -33.6 81 -39 -39 опасность
обморожения
1009.4 981.4
09 17.02 штиль 0 50 км {снег} 3/0
[Ci fib]
-37.4 -39.5 81 -37 -37 опасность
обморожения
1011.5 982.6 -31.4 0.3
12 17.02 Ю 2 50 км ясно -41.6 -44.4 74 -51 -51 опасность
обморожения
1012.2 982.7
15 17.02 штиль 0 50 км ясно -44.4 -46.4 80 -44 -44 опасность
обморожения
1012.5 982.7
21 17.02 штиль 0 50 км ясно -44.7 -47.0 78 -45 -45 опасность
обморожения
1013.8 984.0 -44.9 14
00 18.02 штиль 0 50 км 10/0
[Cs]
-44.3 -47.0 74 -44 -44 опасность
обморожения
1015.2 985.4
03 18.02 штиль 0 50 км 6/0
[Ci fib]
-37.6 -40.5 74 -38 -36 опасность
обморожения
1015.0 986.0
06 18.02 штиль 0 50 км 3/0
[Ci fib]
-32.4 -36.2 69 -32 -32 опасность
обморожения
1014.8 986.5
09 18.02 штиль 0 50 км ясно -40.0 -42.8 74 -40 -40 опасность
обморожения
1016.3 987.0 -32.4
12 18.02 штиль 0 50 км ясно -42.8 -45.6 74 -43 -43 опасность
обморожения
1018.3 988.5
15 18.02 штиль 0 50 км ясно -44.5 -46.4 81 -45 -45 опасность
обморожения
1019.4 989.3
18 18.02 штиль 0 50 км ясно -45.3 -47.2 81 -45 -45 опасность
обморожения
1019.8 989.7
21 18.02 штиль 0 50 км ясно -45.5 -47.2 83 -46 -46 опасность
обморожения
1020.0 989.8 -45.5 14
00 19.02 штиль 0 50 км ясно -46.1 -48.1 80 -46 -46 опасность
обморожения
1020.4 990.2 -46.3
03 19.02 штиль 0 50 км ясно -37.9 -41.6 68 -38 -37 опасность
обморожения
1018.9 989.7
06 19.02 С 1 50 км ясно -37.5 -40.5 73 -42 -42 опасность
обморожения
1018.4 989.2
09 19.02 С 1 50 км ясно -37.7 -40.5 75 -43 -43 опасность
обморожения
1018.7 989.5 -37.5
12 19.02 З 2 20 км слаб. снег 10/0
[Cs]
-31.4 -33.6 81 -39 -39 опасность
обморожения
1009.4 981.4
15 19.02 штиль 0 50 км 3/0
[Ci fib]
-44.3 -46.4 79 -44 -44 опасность
обморожения
1021.4 991.5
18 19.02 штиль 0 50 км 3/0
[Ci fib]
-44.9 -47.2 78 -45 -45 опасность
обморожения
1022.4 992.3
21 19.02 штиль 0 50 км 3/0
[Ci fib]
-45.5 -47.2 83 -46 -46 опасность
обморожения
1024.0 993.6 -45.5 14
00 20.02 З 2 50 км ясно -44.6 -47.0 77 -54 -54 опасность
обморожения
1024.7 994.5
03 20.02 Ю 2 50 км ясно -37.5 -40.5 73 -46 -45 опасность
обморожения
1024.3 995.0
06 20.02 Ю 2 50 км ясно -32.5 -36.2 69 -40 -40 опасность
обморожения
1023.4 994.7
09 20.02 штиль 0 50 км ясно -38.5 -41.4 74 -39 -39 опасность
обморожения
1025.0 995.6 -32.5
12 20.02 штиль 0 50 км ясно -42.7 -45.6 73 -43 -43 опасность
обморожения
1026.2 996.2
15 20.02 штиль 0 50 км ясно -44.5 -47.0 76 -45 -45 опасность
обморожения
1026.7 996.5
18 20.02 штиль 0 50 км ясно -46.0 -48.6 75 -46 -46 опасность
обморожения
1026.9 996.5
21 20.02 штиль 0 50 км ясно -46.8 -49.6 73 -47 -47 опасность
обморожения
1027.2 996.5 -46.8 14
00 21.02 штиль 0 50 км ясно -46.3 -48.6 77 -46 -46 опасность
обморожения
1029.6 996.5
03 21.02 штиль 0 50 км ясно -37.1 -40.8 68 -37 -36 опасность
обморожения
1024.8 995.6
06 21.02 штиль 0 50 км 3/0
[Ci fib]
-31.9 -35.7 69 -32 -31 опасность
обморожения
1023.2 994.6
09 21.02 штиль 0 50 км ясно -39.1 -41.8 75 -39 -39 опасность
обморожения
1024.1 994.7 -31.9
12 21.02 штиль 0 50 км ясно -43.4 -46.3 73 -43 -43 опасность
обморожения
1024.3 994.3
15 21.02 штиль 0 50 км ясно -46.1 -48.6 76 -46 -46 опасность
обморожения
1024.1 993.7
18 21.02 штиль 0 50 км ясно -46.4 -48.6 78 -46 -46 опасность
обморожения
1023.3 992.9
21 21.02 штиль 0 50 км 5/0
[Ci fib]
-45.9 -48.6 74 -46 -46 опасность
обморожения
1022.2 992.0 -46.6 14
00 22.02 штиль 0 50 км 10/0
[Ac trans Cs]
-40.6 -43.3 75 -41 -40 опасность
обморожения
1020.6 991.0
03 22.02 штиль 0 50 км 8/0
[Ac trans Ci sp]
-33.7 -37.2 71 -34 -33 опасность
обморожения
1018.1 989.4
06 22.02 штиль 0 50 км 10/0
[Ac As]
-27.9 -31.0 75 -28 -28 1015.8 987.8
09 22.02 штиль 0 50 км 10/0
[Ac trans Cs]
-31.1 -33.4 80 -31 -31 опасность
обморожения
1016.3 988.0 -27.4
12 22.02 штиль 0 50 км 8/0
[Cs]
-32.7 -35.1 79 -33 -33 опасность
обморожения
1017.7 989.1
15 22.02 штиль 0 20 км слаб. снег 8/0
[Cs]
-36.8 -39.1 79 -37 -37 опасность
обморожения
1019.2 990.1
18 22.02 штиль 0 50 км {снег} 10/0
[Cs]
-39.7 -41.7 81 -40 -40 опасность
обморожения
1020.4 991.0
21 22.02 штиль 0 50 км 3/0
[Ci fib]
-42.7 -46.0 70 -43 -43 опасность
обморожения
1021.6 991.8 -42.7 0.0 14
00 23.02 штиль 0 50 км ясно -43.9 -45.7 82 -44 -44 опасность
обморожения
1021.7 991.8 -43.9
03 23.02 Ю 2 50 км ясно -33.0 -36.0 74 -41 -40 опасность
обморожения
1019.9 991.3
06 23.02 З 2 50 км ясно -27.5 -31.4 69 -35 -34 опасность
обморожения
1018.0 990.0
09 23.02 штиль 0 50 км 8/0
[Cs]
-36.2 -39.7 70 -36 -36 опасность
обморожения
1018.9 990.0 -27.2
12 23.02 штиль 0 50 км 10/0
[Cs]
-38.7 -40.8 80 -39 -39 опасность
обморожения
1019.0 989.7
15 23.02 штиль 0 50 км 10/0
[Ac lent Cs]
-34.6 -36.8 80 -35 -35 опасность
обморожения
1017.8 989.0
18 23.02 штиль 0 50 км 10/0
[Cs]
-37.9 -40.3 78 -38 -38 опасность
обморожения
1017.8 988.6
21 23.02 штиль 0 50 км 10/0
[Cs]
-39.5 -41.7 79 -40 -40 опасность
обморожения
1017.3 987.9 -39.5 14
00 24.02 штиль 0 50 км 10/0
[Ac und]
-38.7 -40.8 80 -39 -39 опасность
обморожения
1016.1 986.9
03 24.02 штиль 0 50 км 10/0
[Ac und]
-31.8 -34.1 80 -32 -31 опасность
обморожения
1014.1 985.8

 

Местоположение метеостанции Екюччю (Якутия, Россия): широта 66.77 долгота 131.60 высота над уровнем моря 200 м.

В архиве по умолчанию представлена погода в Екюччю за последнюю неделю. Архивные данные за месяц целиком и за предыдущие месяцы, начиная с января 2011 года, Вы можете получить, выбрав интересующий диапазон дат из раскрывающегося списка и нажав кнопку "Ввод!".


*Определитесь, кто Вы:
робот инопланетянин человек

Внимание! Время в таблицах - всемирное. Для получения местного времени необходимо прибавить поправку, которая равна 10 ч.

Смотрите также архив погоды в соседних городах и на ближайших метеорологических станциях:

Погода в Верхоянске (Якутия, Россия) (118 км)
Погода в Батагай-Алыте (Якутия, Россия) (124 км)
Погода в Батагае (Якутия, Россия) (162 км)
Погода в Себян-Кюеле (Якутия, Россия) (179 км)
Погода в Усть-Чарках (Якутия, Россия) (219 км)
Погода в Иэме (Якутия, Россия) (250 км)
Погода в Сеген-Кюеле (Якутия, Россия) (314 км)
Погода в Жиганске (Якутия, Россия) (364 км)
Погода в Сого-Хае (Якутия, Россия) (366 км)
Погода в Сангаре (Якутия, Россия) (369 км)

Пояснения к столбцам:

Ветер - указаны скорость ветра в м/с - средняя за 10 мин, порывы в срок и между сроками (в фигурных скобках) и направление, откуда дует ветер: С - северный, СВ - северо-восточный, В - восточный, ЮВ - юго-восточный, Ю - южный, ЮЗ - юго-западный, З - западный, СЗ - северо-западный.
Видимость - горизонтальная дальность видимости в метрах или километрах. При видимости от 1 до 10 км при отсутствии осадков обычно наблюдается дымка, при ухудшении видимости до 1 км и менее - туман. В сухую погоду видимость может ухудшаться дымом, пылью или мглою.
Явления - указаны атмосферные явления, наблюдавшиеся в срок или в последний час перед сроком; фигурными скобками обозначены явления, наблюдавшиеся между сроками (за 1-3 часа до срока); квадратными скобками обозначены град или гололедные отложения с указанием их диаметра в мм.
Облачность - указаны через наклонную черту общая и нижняя облачность в баллах и высота нижней границы облаков в метрах; квадратными скобками обозначены формы облаков: Ci - перистые, Cs - перисто-слоистые, Cc - перисто-кучевые, Ac - высококучевые, As - высокослоистые, Sc - слоисто-кучевые, Ns - слоисто-дождевые, Cu - кучевые, Cb - кучево-дождевые. Подробнее классификацию облаков см. в Атласе облаков (PDF).
T - Температура воздуха - температура, измеренная на высоте 2 м над землей.
Td - Температура точки росы - температура, при понижении до которой содержащийся в воздухе водяной пар достигнет насыщения.
f - Относительная влажность воздуха - влажноcть воздуха, измеренная на высоте 2 м над землей.
Te - Эффективная температура - температура, которую ощущает одетый по сезону человек в тени. Характеристика душности погоды. При расчете учитывается влияние влажности воздуха и скорости ветра на теплоощущения человека.
Tes - Эффективная температура на солнце - температура, которую ощущает человек, с поправкой на солнечный нагрев. Характеристика знойности погоды. Зависит от высоты солнца над горизонтом, облачности и скорости ветра. Ночью, в пасмурную погоду, а также при ветре 12 м/с и более поправка равна нулю.
P - Атмосферное давление - приведенное к уровню моря атмосферное давление.
Po - Атмосферное давление - измеренное на уровне метеостанции атмосферное давление.
Tmin - Минимальная температура - минимум температуры воздуха на высоте 2 м над землей.
Tmax - Максимальная температура - максимум температуры воздуха на высоте 2 м над землей.
R - Количество осадков - Количество выпавших осадков за период времени, мм. При наведении курсора мыши на число - период времени, за который выпало указанное количество осадков.
R24 - Количество осадков - Количество выпавших осадков за 24 часа, мм.
S - Снежный покров - Высота снежного покрова, см. При наведении курсора мыши на число - состояние снежного покрова и степень покрытия местности в баллах.